Showing default

CENTISPACE-1 S4, 53758

Orbit data source: Space-Track

CENTISPACE-1 S4, 53758 is a payload satellite owned by Centispace (CN) in LEO that was launched on Tue, 06 Sep 2022 UTC via a KUAIZHOU-1A launch vehicle from the Jiuquan Satellite Launch Center, China (JSC). Payload-class satellites include a variety of spacecraft equipped with specific instruments for various scientific and technological missions. These include communications satellites like Starlink; space stations such as the ISS; scientific satellites like the Hubble; Earth observation satellites from companies like Planet Labs, Umbra, and HawkEye 360; GPS; miniature CubeSats for education and research; and military/defense satellites.

Loading next visibility...
Identifier
53758, 2022-108B
Orbit
LEO
Country
Flag of CNCN / PRC
Related business
Manufacturer
IMICAS/HARB
Mission
Operational Commercial Nav/Com
Bus & Motor
WN100, Unknown motor
Mass
97 kg wet, 97 kg dry
Launch date (UTC)
2022-09-06 (4 years ago)
Launch vehicle
KUAIZHOU-1A
Launch site
Jiuquan Satellite Launch Center, China (JSC)
Object type
Payload
Rocket body
Debris
Shape & HBR
Box + 2 Pan, 1.0 m
Radar Cross Section
0.833 m², Medium (>0.1 m² and < 1m²)

Expand to show TLE details & history
Last TLE update: 2 days ago

TLE from 2 days ago
0 CENTISPACE-1 S4
1 53758U 22108B   26171.40522003  .00000445  00000-0  12590-3 0  9997
2 53758  53.5315  39.4550 0008747 352.3834   7.7007 14.61938143202030
Epoch: 2026-06-20T09:43Z
TLE epoch observation values (Epoch: 2026-06-20T09:43:31.010Z)
Latitude
-0.00005°
Longitude
-15.04456°
Altitude
681.71 km
Speed
7.52 km/s
True Right ascension
02h 37m 49s
True Declination
0° 00' 00"
Sunlit
Object was in daylight at epoch
Visualization orbit readout
Latitude
Unknown
Longitude
Unknown
Altitude
Unknown
Speed
Unknown
Apparent Right ascension
Unknown
Apparent Declination
Unknown
Sunlit
N/A
Visualization observer readout
Local Sidereal Time
23:08:47
Azimuth
Unknown
Elevation
Unknown
Doppler factor
Unknown
Orbital elements
Apogee altitude
693.294 km
Perigee altitude
680.934 km
Semi-major axis
7,065.251 km
Eccentricity
0.00087
Inclination
53.5315°
RAAN
39.455°
Arg. of periapsis
352.3834°
True anomaly
7.71415°
Mean anomaly
7.7007°
Eccentric anomaly
7.70742°
Mean motion
3.6547 °/min
Orbital period
98.5 mins
BSTAR
0.0001259
Loading maneuver chart data...
Computing Atmospheric mass density...
Loading historical data...
Loading historical data...
Loading historical data...
Loading historical data...
Loading historical data...
Loading historical data...
Loading historical data...
Other satellites on launch #108 in the year 2022 (2022-09-06 UTC)

Documentation

Showing up to 5 results
|